STARLINK-5612, 55754

Orbit data source: Space-Track

STARLINK-5612, 55754 is a payload satellite owned by SpaceX/Seattle (US) in LEO that was launched on Fri, 03 Mar 2023 UTC via an FALCON 9 launch vehicle from the Air Force Western Test Range (AFWTR). Payload-class satellites include a variety of spacecraft equipped with specific instruments for various scientific and technological missions. These include communications satellites like Starlink; space stations such as the ISS; scientific satellites like the Hubble; Earth observation satellites from companies like Planet Labs, Umbra, and HawkEye 360; GPS; miniature CubeSats for education and research; and military/defense satellites.

Loading next visibility...
Identifier
55754, 2023-028P
Orbit
LEO
Country
Flag of USUS
Related business
Manufacturer
SpaceX/Seattle
Mission
Operational Commercial Communications
Bus & Motor
STARLINK, Unknown motor
Mass
305 kg wet, ~290 kg dry
Launch date (UTC)
2023-03-03 (3 years ago)
Launch vehicle
FALCON 9
Launch site
Air Force Western Test Range (AFWTR)
Object type
Payload
Rocket body
Debris
Shape & HBR
Box + 1 Pan, 10.1 m
Radar Cross Section
11.087 m², Large (>1 m²)

Expand to show TLE details & history
Last TLE update: 3 days ago

TLE from 3 days ago
0 STARLINK-5612
1 55754U 23028P   26170.90828460  .00000325  00000-0  35037-4 0  9996
2 55754  69.9994 346.6411 0002795 269.6963  90.3876 14.98330653181356
Epoch: 2026-06-19T21:47Z
TLE epoch observation values (Epoch: 2026-06-19T21:47:55.789Z)
Latitude
-0°
Longitude
111.52813°
Altitude
574.491 km
Speed
7.574 km/s
True Right ascension
23h 06m 33s
True Declination
0° 00' 00"
Sunlit
Object was in daylight at epoch
Visualization orbit readout
Latitude
Unknown
Longitude
Unknown
Altitude
Unknown
Speed
Unknown
Apparent Right ascension
Unknown
Apparent Declination
Unknown
Sunlit
N/A
Visualization observer readout
Local Sidereal Time
21:25:30
Azimuth
Unknown
Elevation
Unknown
Doppler factor
Unknown
Orbital elements
Apogee altitude
571.944 km
Perigee altitude
568.06 km
Semi-major axis
6,948.139 km
Eccentricity
0.00028
Inclination
69.9994°
RAAN
346.6411°
Arg. of periapsis
269.6963°
True anomaly
90.41963°
Mean anomaly
90.3876°
Eccentric anomaly
90.40361°
Mean motion
3.74749 °/min
Orbital period
96.06 mins
BSTAR
0.000035037
Loading maneuver chart data...
Computing Atmospheric mass density...
Loading historical data...
Loading historical data...
Loading historical data...
Loading historical data...
Loading historical data...
Loading historical data...
Loading historical data...

Documentation

Showing up to 5 results
|